Date String (YYYY-MM-DD hh:mm:ss) UTC,Instrument flags,absolute air pressure of the measurement (hPa),sample flow rate (lpm),inlet stack bypass flow (lpm),air temperature of the measurement (°C),ambient temperature measured by the external sensor (°C),aerosol sample conditioner tube jacket temperature (°C),OPC LED temperature (°C),internal box temperature (°C),relative humidity of the measurement (%),span deviation,mass concentration of particles derived from Lorenz-Mie calculation of OPC scattering (μg/m³),mass concentration of particles derived from Lorenz-Mie calculation of OPC scattering (μg/m³),mass concentration of particles derived from Lorenz-Mie calculation of OPC scattering (μg/m³)
DateTimeUTC,F1_M11,P_M11,Q1_M11,Q2_M11,T1_M11,T2_M11,T3_M11,T4_M11,T5_M11,U1_M11,ZSPAN_M11,X0_M11,X2_M11,X1_M11
2024-02-02 05:00:00,SystemResetWarning,0822.2,5.00,000.00,025.4,024.6,000.0,033.8,027.1,09.7,0000.0,0011.44,0004.15,0003.54
2024-02-02 05:01:00,SystemResetWarning,0822.2,5.00,000.00,025.4,024.6,000.0,033.8,027.1,09.7,0005.4,0011.26,0004.19,0003.57
2024-02-02 05:02:00,SystemResetWarning,0822.2,5.00,000.00,025.4,024.6,000.0,033.8,027.0,09.7,0000.0,0010.53,0004.18,0003.58
2024-02-02 05:03:00,SystemResetWarning,0822.2,4.99,000.00,025.4,024.6,000.0,033.7,027.0,09.7,0000.0,0009.69,0004.15,0003.58
2024-02-02 05:04:00,SystemResetWarning,0822.2,4.99,000.00,025.4,024.6,000.0,033.7,027.0,09.7,0000.0,0009.09,0004.19,0003.58
2024-02-02 05:05:00,SystemResetWarning,0822.2,4.99,000.00,025.4,024.6,000.0,033.7,027.0,09.8,0000.0,0009.21,0004.20,0003.60
2024-02-02 05:06:00,SystemResetWarning,0822.2,5.01,000.00,025.4,024.6,000.0,033.7,027.0,09.8,0000.0,0009.05,0004.20,0003.60
2024-02-02 05:07:00,SystemResetWarning,0822.3,5.01,000.00,025.4,024.6,000.0,033.7,027.0,09.8,-001.1,0008.96,0004.19,0003.61
2024-02-02 05:08:00,SystemResetWarning,0822.3,5.00,000.00,025.4,024.6,000.0,033.7,027.0,09.8,-000.6,0009.20,0004.18,0003.61
2024-02-02 05:09:00,SystemResetWarning,0822.2,4.98,000.00,025.4,024.5,000.0,033.7,027.0,09.8,0001.4,0010.09,0004.20,0003.62
2024-02-02 05:10:00,SystemResetWarning,0822.2,5.00,000.00,025.3,024.5,000.0,033.7,027.0,09.8,0003.1,0010.77,0004.20,0003.61
2024-02-02 05:11:00,SystemResetWarning,0822.2,5.00,000.00,025.3,024.5,000.0,033.7,027.0,09.8,0001.7,0011.46,0004.21,0003.61
2024-02-02 05:12:00,SystemResetWarning,0822.3,5.00,000.00,025.3,024.5,000.0,033.7,027.0,09.7,0002.5,0011.42,0004.20,0003.61
2024-02-02 05:13:00,SystemResetWarning,0822.3,5.00,000.00,025.3,024.5,000.0,033.7,027.0,09.8,0001.8,0011.71,0004.20,0003.62
2024-02-02 05:14:00,SystemResetWarning,0822.3,5.01,000.00,025.3,024.5,000.0,033.7,027.0,09.8,0002.3,0011.86,0004.22,0003.63
2024-02-02 05:15:00,SystemResetWarning,0822.3,5.00,000.00,025.3,024.5,000.0,033.7,027.0,09.8,0002.9,0011.91,0004.23,0003.65
2024-02-02 05:16:00,SystemResetWarning,0822.3,5.01,000.00,025.3,024.5,000.0,033.7,027.0,09.9,0002.6,0011.49,0004.27,0003.66
2024-02-02 05:17:00,SystemResetWarning,0822.2,5.00,000.00,025.3,024.5,000.0,033.7,026.9,09.8,0003.6,0011.42,0004.28,0003.67
2024-02-02 05:18:00,SystemResetWarning,0822.3,4.99,000.00,025.3,024.5,000.0,033.6,026.9,09.9,0004.3,0011.52,0004.29,0003.68
2024-02-02 05:19:00,SystemResetWarning,0822.2,4.99,000.00,025.3,024.5,000.0,033.6,026.9,10.0,0004.6,0011.83,0004.29,0003.68
2024-02-02 05:20:00,SystemResetWarning,0822.2,5.00,000.00,025.3,024.5,000.0,033.6,026.9,10.1,0004.1,0011.36,0004.27,0003.67
2024-02-02 05:21:00,SystemResetWarning,0822.3,5.00,000.00,025.3,024.4,000.0,033.6,026.9,10.0,0003.4,0011.23,0004.26,0003.67
2024-02-02 05:22:00,SystemResetWarning,0822.2,5.01,000.00,025.3,024.4,000.0,033.6,026.9,10.0,0003.4,0011.77,0004.24,0003.67
2024-02-02 05:23:00,SystemResetWarning,0822.3,5.00,000.00,025.2,024.4,000.0,033.6,026.9,10.0,0003.0,0013.24,0004.22,0003.65
2024-02-02 05:24:00,SystemResetWarning,0822.2,5.00,000.00,025.2,024.4,000.0,033.6,026.9,10.0,0003.3,0013.60,0004.17,0003.61
2024-02-02 05:25:00,SystemResetWarning,0822.2,5.00,000.00,025.2,024.4,000.0,033.6,026.9,10.0,0004.4,0013.44,0004.14,0003.59
2024-02-02 05:26:00,SystemResetWarning,0822.2,5.00,000.00,025.2,024.4,000.0,033.6,026.8,10.1,0004.8,0013.48,0004.10,0003.56
2024-02-02 05:27:00,SystemResetWarning,0822.2,5.00,000.00,025.2,024.4,000.0,033.6,026.8,10.0,0000.9,0013.31,0004.02,0003.53
2024-02-02 05:28:00,SystemResetWarning,0822.2,5.00,000.00,025.2,024.4,000.0,033.6,026.9,10.0,0006.5,0013.96,0004.00,0003.51
2024-02-02 05:29:00,SystemResetWarning,0822.2,5.00,000.00,025.2,024.4,000.0,033.6,026.8,10.0,0000.0,0013.79,0003.99,0003.50
2024-02-02 05:30:00,SystemResetWarning,0822.2,5.00,000.00,025.2,024.4,000.0,033.5,026.8,10.0,0000.0,0013.11,0003.99,0003.49
2024-02-02 05:31:00,SystemResetWarning,0822.2,5.00,000.00,025.2,024.4,000.0,033.5,026.8,10.0,0000.0,0014.27,0004.00,0003.48
2024-02-02 05:32:00,SystemResetWarning,0822.2,5.00,000.00,025.2,024.3,000.0,033.5,026.8,10.1,0000.0,0014.24,0004.01,0003.47
2024-02-02 05:33:00,SystemResetWarning,0822.2,5.00,000.00,025.2,024.3,000.0,033.5,026.8,10.1,0000.0,0013.04,0003.99,0003.45
2024-02-02 05:34:00,SystemResetWarning,0822.2,5.00,000.00,025.1,024.3,000.0,033.5,026.8,10.4,0000.0,0011.55,0003.97,0003.44
2024-02-02 05:35:00,SystemResetWarning,0822.2,5.00,000.00,025.1,024.3,000.0,033.5,026.8,10.5,0000.0,0011.05,0003.97,0003.43
2024-02-02 05:36:00,SystemResetWarning,0822.2,5.00,000.00,025.1,024.3,000.0,033.5,026.8,10.5,0000.0,0011.18,0003.94,0003.39
2024-02-02 05:37:00,SystemResetWarning,0822.2,5.00,000.00,025.1,024.3,000.0,033.5,026.8,10.4,0000.0,0011.40,0003.91,0003.35
2024-02-02 05:38:00,SystemResetWarning,0822.2,4.99,000.00,025.1,024.3,000.0,033.5,026.8,10.3,0000.0,0011.87,0003.92,0003.32
2024-02-02 05:39:00,SystemResetWarning,0822.2,5.01,000.00,025.1,024.3,000.0,033.5,026.8,10.3,0000.0,0011.18,0003.93,0003.28
2024-02-02 05:40:00,SystemResetWarning,0822.1,5.01,000.00,025.1,024.3,000.0,033.5,026.7,10.2,0000.0,0011.34,0003.91,0003.24
2024-02-02 05:41:00,SystemResetWarning,0822.1,5.00,000.00,025.1,024.3,000.0,033.5,026.7,10.3,0000.0,0011.70,0003.85,0003.19
2024-02-02 05:42:00,SystemResetWarning,0822.1,4.99,000.00,025.1,024.3,000.0,033.5,026.7,10.3,0000.0,0010.54,0003.83,0003.16
2024-02-02 05:43:00,SystemResetWarning,0822.1,5.01,000.00,025.1,024.2,000.0,033.5,026.8,10.3,0000.0,0010.68,0003.80,0003.12
2024-02-02 05:44:00,SystemResetWarning,0822.1,5.00,000.00,025.1,024.2,000.0,033.4,026.8,10.3,0000.0,0010.68,0003.78,0003.10
2024-02-02 05:45:00,SystemResetWarning,0822.1,5.00,000.00,025.1,024.2,000.0,033.4,026.7,10.2,0000.0,0010.89,0003.76,0003.08
2024-02-02 05:46:00,SystemResetWarning,0822.1,5.00,000.00,025.0,024.2,000.0,033.4,026.7,10.3,0000.1,0011.67,0003.78,0003.06
2024-02-02 05:47:00,SystemResetWarning,0822.1,5.00,000.00,025.0,024.2,000.0,033.4,026.7,10.3,0003.3,0011.85,0003.80,0003.06
2024-02-02 05:48:00,SystemResetWarning,0822.1,5.00,000.00,025.0,024.2,000.0,033.4,026.7,10.3,0001.0,0012.58,0003.79,0003.07
2024-02-02 05:49:00,SystemResetWarning,0822.1,4.99,000.00,025.0,024.2,000.0,033.4,026.7,10.3,0000.2,0012.90,0003.77,0003.08
2024-02-02 05:50:00,SystemResetWarning,0822.1,5.01,000.00,025.0,024.2,000.0,033.4,026.7,10.3,0000.0,0012.77,0003.74,0003.09
2024-02-02 05:51:00,SystemResetWarning,0822.1,5.01,000.00,025.0,024.2,000.0,033.4,026.7,10.4,0000.0,0012.51,0003.75,0003.10
2024-02-02 05:52:00,SystemResetWarning,0822.1,4.98,000.00,025.0,024.2,000.0,033.4,026.6,10.4,0000.0,0012.10,0003.76,0003.09
2024-02-02 05:53:00,SystemResetWarning,0822.1,5.00,000.00,025.0,024.2,000.0,033.4,026.6,10.4,0000.0,0012.59,0003.76,0003.07
2024-02-02 05:54:00,SystemResetWarning,0822.1,5.01,000.00,025.0,024.2,000.0,033.4,026.6,10.4,0000.0,0012.31,0003.76,0003.09
2024-02-02 05:55:00,SystemResetWarning,0822.1,5.00,000.00,025.0,024.2,000.0,033.3,026.6,10.4,0000.0,0012.07,0003.75,0003.09
2024-02-02 05:56:00,SystemResetWarning,0822.1,5.00,000.00,025.0,024.1,000.0,033.3,026.6,10.4,0000.0,0011.63,0003.74,0003.09
2024-02-02 05:57:00,SystemResetWarning,0822.1,5.00,000.00,025.0,024.1,000.0,033.3,026.6,10.4,0000.0,0011.00,0003.68,0003.08
2024-02-02 05:58:00,SystemResetWarning,0822.0,4.99,000.00,024.9,024.1,000.0,033.3,026.6,10.4,0000.0,0010.80,0003.65,0003.06
2024-02-02 05:59:00,SystemResetWarning,0822.0,5.00,000.00,024.9,024.1,000.0,033.3,026.6,10.4,0000.0,0009.63,0003.66,0003.06
